Location: Newark
(45.2500°N, 7.5833°E)
Time: 08:29:43
(UTC+00:00)

BEESAT 2 - Pass Details

Date: 26 February 2020
Orbit: 494 x 533 km, 64.9° (Epoch: 07 April)

Event Time Altitude Azimuth Distance (km) Brightness Sun altitude
Rises 19:09:45 0° 327° (NNW) 2,688 ? -21.5°
Reaches altitude 10° 19:12:00 10° 332° (NNW) 1,794 ? -21.8°
Enters shadow 19:15:17 47° 13° (NNE) 711 ? -22.4°
